Time,TemperatureF,DewpointF,PressureIn,WindDirection,WindDirectionDegrees,WindSpeedMPH,WindSpeedGustMPH,Humidity,HourlyPrecipIn,Conditions,Clouds,dailyrainin,SolarRadiationWatts/m^2,SoftwareType,DateUTC
2013-03-15 00:03:00,28.0,15.0,-100.00,NNW,344,1.0,2.0,57,0.00,,,0.00,0.000000,,2013-03-15 04:03:00,
2013-03-15 00:11:00,28.0,13.0,-100.00,NW,315,0.0,3.0,52,0.00,,,0.00,0.000000,,2013-03-15 04:11:00,
2013-03-15 00:33:00,28.0,13.0,-100.00,NW,315,0.0,3.0,52,0.00,,,0.00,0.000000,,2013-03-15 04:33:00,
2013-03-15 00:43:00,28.0,13.0,-100.00,NW,315,0.0,3.0,52,0.00,,,0.00,0.000000,,2013-03-15 04:43:00,
2013-03-15 00:53:00,28.0,13.0,-100.00,NW,315,0.0,3.0,52,0.00,,,0.00,0.000000,,2013-03-15 04:53:00,
2013-03-15 01:02:00,28.0,13.0,-100.00,NW,315,0.0,3.0,52,0.00,,,0.00,0.000000,,2013-03-15 05:02:00,
2013-03-15 01:11:00,29.0,14.0,-100.00,North,354,2.0,5.0,53,0.00,,,0.00,0.000000,,2013-03-15 05:11:00,
2013-03-15 01:32:00,29.0,14.0,-100.00,North,354,2.0,5.0,53,0.00,,,0.00,0.000000,,2013-03-15 05:32:00,
2013-03-15 01:42:00,29.0,14.0,-100.00,North,354,2.0,5.0,53,0.00,,,0.00,0.000000,,2013-03-15 05:42:00,
2013-03-15 01:52:00,29.0,14.0,-100.00,North,354,2.0,5.0,53,0.00,,,0.00,0.000000,,2013-03-15 05:52:00,
2013-03-15 02:02:00,29.0,14.0,-100.00,North,354,2.0,5.0,53,0.00,,,0.00,0.000000,,2013-03-15 06:02:00,
2013-03-15 02:11:00,28.0,12.0,-100.00,North,349,2.0,3.0,51,0.00,,,0.00,0.000000,,2013-03-15 06:11:00,
2013-03-15 02:33:00,28.0,12.0,-100.00,North,349,2.0,3.0,51,0.00,,,0.00,0.000000,,2013-03-15 06:33:00,
2013-03-15 02:42:00,28.0,12.0,-100.00,North,349,2.0,3.0,51,0.00,,,0.00,0.000000,,2013-03-15 06:42:00,
2013-03-15 02:53:00,28.0,12.0,-100.00,North,349,2.0,3.0,51,0.00,,,0.00,0.000000,,2013-03-15 06:53:00,
2013-03-15 03:02:00,28.0,12.0,-100.00,North,349,2.0,3.0,51,0.00,,,0.00,0.000000,,2013-03-15 07:02:00,
2013-03-15 03:11:00,27.0,13.0,-100.00,ENE,62,1.0,3.0,56,0.00,,,0.00,0.000000,,2013-03-15 07:11:00,
2013-03-15 03:32:00,27.0,13.0,-100.00,ENE,62,1.0,3.0,56,0.00,,,0.00,0.000000,,2013-03-15 07:32:00,
2013-03-15 03:42:00,27.0,13.0,-100.00,ENE,62,1.0,3.0,56,0.00,,,0.00,0.000000,,2013-03-15 07:42:00,
2013-03-15 03:52:00,27.0,13.0,-100.00,ENE,62,1.0,3.0,56,0.00,,,0.00,0.000000,,2013-03-15 07:52:00,
2013-03-15 04:02:00,27.0,13.0,-100.00,ENE,62,1.0,3.0,56,0.00,,,0.00,0.000000,,2013-03-15 08:02:00,
2013-03-15 04:11:00,27.0,13.0,-100.00,NW,324,2.0,4.0,56,0.00,,,0.00,0.000000,,2013-03-15 08:11:00,
2013-03-15 04:33:00,27.0,13.0,-100.00,NW,324,2.0,4.0,56,0.00,,,0.00,0.000000,,2013-03-15 08:33:00,
2013-03-15 04:42:00,27.0,13.0,-100.00,NW,324,2.0,4.0,56,0.00,,,0.00,0.000000,,2013-03-15 08:42:00,
2013-03-15 04:53:00,27.0,13.0,-100.00,NW,324,2.0,4.0,56,0.00,,,0.00,0.000000,,2013-03-15 08:53:00,
2013-03-15 05:02:00,27.0,13.0,-100.00,NW,324,2.0,4.0,56,0.00,,,0.00,0.000000,,2013-03-15 09:02:00,
2013-03-15 05:11:00,27.0,16.0,-100.00,NW,322,2.0,4.0,64,0.00,,,0.00,0.000000,,2013-03-15 09:11:00,
2013-03-15 05:33:00,27.0,16.0,-100.00,NW,322,2.0,4.0,64,0.00,,,0.00,0.000000,,2013-03-15 09:33:00,
2013-03-15 05:43:00,27.0,16.0,-100.00,NW,322,2.0,4.0,64,0.00,,,0.00,0.000000,,2013-03-15 09:43:00,
2013-03-15 05:53:00,27.0,16.0,-100.00,NW,322,2.0,4.0,64,0.00,,,0.00,0.000000,,2013-03-15 09:53:00,
2013-03-15 06:03:00,27.0,16.0,-100.00,NW,322,2.0,4.0,64,0.00,,,0.00,0.000000,,2013-03-15 10:03:00,
2013-03-15 06:11:00,28.0,17.0,-100.00,NW,313,1.0,4.0,62,0.00,,,0.00,0.000000,,2013-03-15 10:11:00,
2013-03-15 06:33:00,28.0,17.0,-100.00,NW,313,1.0,4.0,62,0.00,,,0.00,0.000000,,2013-03-15 10:33:00,
2013-03-15 06:43:00,28.0,17.0,-100.00,NW,313,1.0,4.0,62,0.00,,,0.00,0.000000,,2013-03-15 10:43:00,
2013-03-15 06:52:00,28.0,17.0,-100.00,NW,313,1.0,4.0,62,0.00,,,0.00,0.000000,,2013-03-15 10:52:00,
2013-03-15 07:03:00,28.0,17.0,-100.00,NW,313,1.0,4.0,62,0.00,,,0.00,0.000000,,2013-03-15 11:03:00,
2013-03-15 07:11:00,29.0,18.0,-100.00,SW,236,1.0,3.0,64,0.00,,,0.00,0.000000,,2013-03-15 11:11:00,
2013-03-15 07:33:00,29.0,18.0,-100.00,SW,236,1.0,3.0,64,0.00,,,0.00,0.000000,,2013-03-15 11:33:00,
2013-03-15 07:42:00,29.0,18.0,-100.00,SW,236,1.0,3.0,64,0.00,,,0.00,0.000000,,2013-03-15 11:42:00,
2013-03-15 07:52:00,29.0,18.0,-100.00,SW,236,1.0,3.0,64,0.00,,,0.00,0.000000,,2013-03-15 11:52:00,
2013-03-15 08:02:00,29.0,18.0,-100.00,SW,236,1.0,3.0,64,0.00,,,0.00,0.000000,,2013-03-15 12:02:00,
2013-03-15 08:11:00,29.0,20.0,-100.00,West,275,1.0,3.0,68,0.00,,,0.00,13.000000,,2013-03-15 12:11:00,
2013-03-15 08:32:00,29.0,20.0,-100.00,West,275,1.0,3.0,68,0.00,,,0.00,13.000000,,2013-03-15 12:32:00,
2013-03-15 08:42:00,29.0,20.0,-100.00,West,275,1.0,3.0,68,0.00,,,0.00,13.000000,,2013-03-15 12:42:00,
2013-03-15 08:52:00,29.0,20.0,-100.00,West,275,1.0,3.0,68,0.00,,,0.00,13.000000,,2013-03-15 12:52:00,
2013-03-15 09:02:00,29.0,20.0,-100.00,West,275,1.0,3.0,68,0.00,,,0.00,13.000000,,2013-03-15 13:02:00,
2013-03-15 09:11:00,37.0,24.0,-100.00,SSE,151,2.0,5.0,58,0.00,,,0.00,205.000000,,2013-03-15 13:11:00,
2013-03-15 09:42:00,37.0,24.0,-100.00,SSE,151,2.0,5.0,58,0.00,,,0.00,205.000000,,2013-03-15 13:42:00,
2013-03-15 09:53:00,37.0,24.0,-100.00,SSE,151,2.0,5.0,58,0.00,,,0.00,205.000000,,2013-03-15 13:53:00,
2013-03-15 10:02:00,37.0,24.0,-100.00,SSE,151,2.0,5.0,58,0.00,,,0.00,205.000000,,2013-03-15 14:02:00,
2013-03-15 10:11:00,41.0,27.0,-100.00,ENE,58,3.0,7.0,56,0.00,,,0.00,441.000000,,2013-03-15 14:11:00,
2013-03-15 10:33:00,41.0,27.0,-100.00,ENE,58,3.0,7.0,56,0.00,,,0.00,441.000000,,2013-03-15 14:33:00,
2013-03-15 10:42:00,41.0,27.0,-100.00,ENE,58,3.0,7.0,56,0.00,,,0.00,441.000000,,2013-03-15 14:42:00,
2013-03-15 10:53:00,41.0,27.0,-100.00,ENE,58,3.0,7.0,56,0.00,,,0.00,441.000000,,2013-03-15 14:53:00,
2013-03-15 11:02:00,41.0,27.0,-100.00,ENE,58,3.0,7.0,56,0.00,,,0.00,441.000000,,2013-03-15 15:02:00,
2013-03-15 11:11:00,46.0,29.0,-100.00,ENE,63,6.0,11.0,52,0.00,,,0.00,630.000000,,2013-03-15 15:11:00,
2013-03-15 11:33:00,46.0,29.0,-100.00,ENE,63,6.0,11.0,52,0.00,,,0.00,630.000000,,2013-03-15 15:33:00,
2013-03-15 11:43:00,46.0,29.0,-100.00,ENE,63,6.0,11.0,52,0.00,,,0.00,630.000000,,2013-03-15 15:43:00,
2013-03-15 11:53:00,46.0,29.0,-100.00,ENE,63,6.0,11.0,52,0.00,,,0.00,630.000000,,2013-03-15 15:53:00,
2013-03-15 12:03:00,46.0,29.0,-100.00,ENE,63,6.0,11.0,52,0.00,,,0.00,630.000000,,2013-03-15 16:03:00,
2013-03-15 12:11:00,49.0,29.0,-100.00,ENE,58,5.0,16.0,46,0.00,,,0.00,803.000000,,2013-03-15 16:11:00,
2013-03-15 12:32:00,49.0,29.0,-100.00,ENE,58,5.0,16.0,46,0.00,,,0.00,803.000000,,2013-03-15 16:32:00,
2013-03-15 12:42:00,49.0,29.0,-100.00,ENE,58,5.0,16.0,46,0.00,,,0.00,803.000000,,2013-03-15 16:42:00,
2013-03-15 12:53:00,49.0,29.0,-100.00,ENE,58,5.0,16.0,46,0.00,,,0.00,803.000000,,2013-03-15 16:53:00,
2013-03-15 13:02:00,49.0,29.0,-100.00,ENE,58,5.0,16.0,46,0.00,,,0.00,803.000000,,2013-03-15 17:02:00,
2013-03-15 13:11:00,51.0,30.0,-100.00,NE,53,6.0,12.0,44,0.00,,,0.00,826.000000,,2013-03-15 17:11:00,
2013-03-15 13:33:00,51.0,30.0,-100.00,NE,53,6.0,12.0,44,0.00,,,0.00,826.000000,,2013-03-15 17:33:00,
2013-03-15 13:43:00,51.0,30.0,-100.00,NE,53,6.0,12.0,44,0.00,,,0.00,826.000000,,2013-03-15 17:43:00,
2013-03-15 13:53:00,51.0,30.0,-100.00,NE,53,6.0,12.0,44,0.00,,,0.00,826.000000,,2013-03-15 17:53:00,
2013-03-15 14:03:00,51.0,30.0,-100.00,NE,53,6.0,12.0,44,0.00,,,0.00,826.000000,,2013-03-15 18:03:00,
2013-03-15 14:11:00,53.0,31.0,-100.00,ENE,65,6.0,15.0,43,0.00,,,0.00,665.000000,,2013-03-15 18:11:00,
2013-03-15 14:42:00,53.0,31.0,-100.00,ENE,65,6.0,15.0,43,0.00,,,0.00,665.000000,,2013-03-15 18:42:00,
2013-03-15 14:53:00,53.0,31.0,-100.00,ENE,65,6.0,15.0,43,0.00,,,0.00,665.000000,,2013-03-15 18:53:00,
2013-03-15 15:02:00,53.0,31.0,-100.00,ENE,65,6.0,15.0,43,0.00,,,0.00,665.000000,,2013-03-15 19:02:00,
2013-03-15 15:11:00,54.0,31.0,-100.00,NE,56,7.0,14.0,42,0.00,,,-99.99,582.000000,,2013-03-15 19:11:00,
2013-03-15 15:42:00,54.0,31.0,-100.00,NE,56,7.0,14.0,42,0.00,,,-99.99,582.000000,,2013-03-15 19:42:00,
2013-03-15 15:53:00,54.0,31.0,-100.00,NE,56,7.0,14.0,42,0.00,,,-99.99,582.000000,,2013-03-15 19:53:00,
2013-03-15 16:03:00,54.0,31.0,-100.00,NE,56,7.0,14.0,42,0.00,,,-99.99,582.000000,,2013-03-15 20:03:00,
2013-03-15 16:11:00,56.0,32.0,-100.00,NE,56,6.0,14.0,40,0.00,,,0.00,588.000000,,2013-03-15 20:11:00,
2013-03-15 16:42:00,56.0,32.0,-100.00,NE,56,6.0,14.0,40,0.00,,,0.00,588.000000,,2013-03-15 20:42:00,
2013-03-15 16:52:00,56.0,32.0,-100.00,NE,56,6.0,14.0,40,0.00,,,0.00,588.000000,,2013-03-15 20:52:00,
2013-03-15 17:02:00,56.0,32.0,-100.00,NE,56,6.0,14.0,40,0.00,,,0.00,588.000000,,2013-03-15 21:02:00,
2013-03-15 17:11:00,57.0,32.0,-100.00,ENE,62,5.0,12.0,39,0.00,,,0.00,473.000000,,2013-03-15 21:11:00,
2013-03-15 17:43:00,57.0,32.0,-100.00,ENE,62,5.0,12.0,39,0.00,,,0.00,473.000000,,2013-03-15 21:43:00,
2013-03-15 17:53:00,57.0,32.0,-100.00,ENE,62,5.0,12.0,39,0.00,,,0.00,473.000000,,2013-03-15 21:53:00,
2013-03-15 18:04:00,57.0,32.0,-100.00,ENE,62,5.0,12.0,39,0.00,,,0.00,473.000000,,2013-03-15 22:04:00,
2013-03-15 18:11:00,56.0,31.0,-100.00,NE,41,5.0,10.0,39,0.00,,,0.00,232.000000,,2013-03-15 22:11:00,
2013-03-15 18:33:00,56.0,31.0,-100.00,NE,41,5.0,10.0,39,0.00,,,0.00,232.000000,,2013-03-15 22:33:00,
2013-03-15 18:42:00,56.0,31.0,-100.00,NE,41,5.0,10.0,39,0.00,,,0.00,232.000000,,2013-03-15 22:42:00,
2013-03-15 18:53:00,56.0,31.0,-100.00,NE,41,5.0,10.0,39,0.00,,,0.00,232.000000,,2013-03-15 22:53:00,
2013-03-15 19:03:00,56.0,31.0,-100.00,NE,41,5.0,10.0,39,0.00,,,0.00,232.000000,,2013-03-15 23:03:00,
2013-03-15 19:11:00,54.0,30.0,-100.00,East,81,3.0,9.0,40,0.00,,,0.00,46.000000,,2013-03-15 23:11:00,
2013-03-15 19:42:00,54.0,30.0,-100.00,East,81,3.0,9.0,40,0.00,,,0.00,46.000000,,2013-03-15 23:42:00,
2013-03-15 19:53:00,54.0,30.0,-100.00,East,81,3.0,9.0,40,0.00,,,0.00,46.000000,,2013-03-15 23:53:00,
2013-03-15 20:03:00,54.0,30.0,-100.00,East,81,3.0,9.0,40,0.00,,,0.00,46.000000,,2013-03-16 00:03:00,
2013-03-15 21:11:00,51.0,34.0,-100.00,ENE,65,2.0,6.0,51,-99.99,,,0.00,0.000000,,2013-03-16 01:11:00,
2013-03-15 21:32:00,51.0,34.0,-100.00,ENE,65,2.0,6.0,51,-99.99,,,0.00,0.000000,,2013-03-16 01:32:00,
2013-03-15 21:42:00,51.0,34.0,-100.00,ENE,65,2.0,6.0,51,-99.99,,,0.00,0.000000,,2013-03-16 01:42:00,
2013-03-15 21:53:00,51.0,34.0,-100.00,ENE,65,2.0,6.0,51,-99.99,,,0.00,0.000000,,2013-03-16 01:53:00,
2013-03-15 22:02:00,51.0,34.0,-100.00,ENE,65,2.0,6.0,51,-99.99,,,0.00,0.000000,,2013-03-16 02:02:00,
2013-03-15 22:11:00,46.0,32.0,-100.00,NNE,19,0.0,3.0,58,0.00,,,0.00,0.000000,,2013-03-16 02:11:00,
2013-03-15 22:43:00,46.0,32.0,-100.00,NNE,19,0.0,3.0,58,0.00,,,0.00,0.000000,,2013-03-16 02:43:00,
2013-03-15 22:52:00,46.0,32.0,-100.00,NNE,19,0.0,3.0,58,0.00,,,0.00,0.000000,,2013-03-16 02:52:00,
2013-03-15 23:02:00,46.0,32.0,-100.00,NNE,19,0.0,3.0,58,0.00,,,0.00,0.000000,,2013-03-16 03:02:00,
2013-03-15 23:11:00,46.0,35.0,-100.00,NW,322,1.0,4.0,64,0.00,,,0.00,0.000000,,2013-03-16 03:11:00,
2013-03-15 23:43:00,46.0,35.0,-100.00,NW,322,1.0,4.0,64,0.00,,,0.00,0.000000,,2013-03-16 03:43:00,
2013-03-15 23:53:00,46.0,35.0,-100.00,NW,322,1.0,4.0,64,0.00,,,0.00,0.000000,,2013-03-16 03:53:00,